Wind_Speed
33 33 34 34 34 34 35 36 38 36 36 35 34 35 36 36 37 38 38 38 38 39 39 39 39 40 40 41 43 44 45 45 45 46 47 48 49 49 50 50 52 52 53 53
33 33 35 35 34 35 35 36 37 38 37 35 35 36 36 37 37 37 37 38 39 39 39 39 40 40 40 41 42 43 44 45 45 46 47 48 49 50 50 51 52 52 53 53
35 34 35 35 34 35 36 36 37 38 37 36 36 36 37 37 37 38 38 38 39 39 39 39 39 40 40 41 41 42 43 45 45 46 47 49 50 50 51 51 52 53 53 53
36 35 36 34 33 35 36 36 36 37 36 36 36 37 38 38 38 38 38 37 38 39 39 39 40 40 40 41 42 43 44 45 46 46 47 48 49 50 51 52 53 54 54 54
35 37 38 35 34 35 37 37 35 37 37 37 37 38 38 38 39 39 39 39 39 39 40 40 41 41 42 42 43 44 44 45 46 46 47 48 49 50 51 52 53 54 55 55
36 37 38 36 35 35 36 36 34 36 37 37 38 38 37 38 39 40 40 40 40 40 41 42 42 43 43 44 44 44 45 45 46 47 48 49 50 51 52 52 53 54 54 55
36 37 38 36 36 36 37 37 37 37 38 38 39 39 38 38 39 40 41 41 41 42 42 43 43 44 44 45 45 46 46 47 48 48 49 50 51 52 52 53 54 54 54 55
36 37 37 37 37 37 38 38 38 38 38 38 39 39 39 39 40 41 41 42 43 43 44 44 45 46 46 46 47 47 48 48 49 50 50 51 51 52 53 53 54 54 55 55
38 38 38 38 38 38 38 39 39 39 39 39 39 40 40 40 41 42 43 43 44 44 44 45 46 47 48 48 49 49 49 50 50 50 51 51 52 52 53 53 54 54 55 55
38 38 38 39 39 39 40 40 41 41 40 40 41 41 41 41 42 42 43 43 44 44 45 45 46 47 48 48 49 50 50 50 50 50 51 51 52 52 53 54 54 54 54 55
38 38 38 39 39 40 40 40 41 41 41 41 41 41 41 42 43 43 43 44 44 44 45 46 47 47 48 48 49 49 50 50 50 51 51 51 52 53 53 54 55 54 54 54
39 38 39 38 39 40 40 40 40 41 41 41 42 43 43 44 44 43 43 44 44 45 45 46 46 47 48 48 48 49 49 50 50 50 51 52 52 53 53 54 54 55 54 54
40 39 39 39 40 40 40 40 41 41 42 42 42 43 43 44 44 44 44 44 44 44 44 45 46 47 47 48 48 48 49 49 50 50 51 51 52 52 53 53 54 54 54 54
38 38 39 39 40 40 41 41 41 41 42 42 42 43 44 44 43 43 44 43 44 44 44 45 45 46 46 47 47 48 48 49 49 50 51 51 52 52 53 52 52 52 52 52
37 38 39 39 40 40 41 41 42 42 42 43 43 43 44 44 44 44 44 44 44 45 45 45 45 45 45 46 47 48 48 49 50 50 50 50 51 52 52 52 51 51 50 51
37 38 39 40 40 41 42 42 42 42 42 43 43 43 43 44 44 44 44 44 45 45 45 45 44 45 45 46 47 48 49 49 50 50 50 50 50 50 51 51 50 50 49 49
38 38 39 40 40 41 41 42 42 42 42 42 42 42 42 43 43 43 44 44 44 44 45 45 45 45 46 47 47 48 48 48 48 48 49 49 48 48 49 49 49 49 47 47
38 39 40 40 40 40 40 40 40 41 41 41 41 42 42 42 42 43 43 44 44 44 45 45 46 46 46 47 47 46 46 46 46 47 47 47 47 47 47 47 47 46 46 45
39 39 39 40 40 40 40 40 40 39 40 40 41 42 42 42 42 43 43 43 44 44 44 45 45 45 45 46 45 45 45 45 45 45 45 45 45 45 44 44 43 43 43 43
39 39 39 39 40 40 40 40 40 40 40 41 42 42 42 42 43 43 44 44 44 44 44 44 44 44 45 45 45 45 45 45 45 44 44 44 43 43 42 41 41 40 40 40
38 38 39 39 40 40 40 40 40 41 41 42 42 42 42 43 43 43 44 43 44 44 44 44 44 45 45 44 44 44 44 44 43 43 43 42 41 40 40 39 39 38 38 37
39 39 39 39 39 39 40 40 41 41 41 41 42 43 43 43 43 43 43 43 43 44 44 44 44 44 44 44 43 43 42 42 41 41 41 40 40 39 38 38 37 37 36 36
39 39 39 40 40 40 40 41 41 41 41 42 43 43 43 43 43 43 43 43 43 44 44 44 44 44 43 43 42 42 41 40 40 39 39 38 38 37 36 36 35 35 35 34
39 39 40 40 40 40 40 40 41 42 42 43 43 44 44 43 43 43 43 43 43 43 43 43 43 43 42 41 40 40 39 38 38 37 37 36 36 36 35 34 34 34 34 33
39 39 40 40 40 40 41 41 42 43 43 43 44 44 44 44 43 43 43 42 43 43 43 42 42 41 40 39 39 38 37 37 36 36 35 35 35 34 34 34 33 33 33 33
39 40 40 40 41 41 42 42 43 43 43 44 44 44 44 43 42 42 41 41 41 41 41 41 40 39 38 38 37 37 36 36 35 35 35 35 34 33 33 33 33 32 32 32
40 40 41 41 41 41 42 42 43 43 43 43 43 42 42 41 40 40 40 39 39 39 39 39 38 37 37 36 36 35 35 35 34 34 34 33 33 32 32 32 32 32 32 31
Wind_Direction
288 286 285 284 283 282 282 283 283 283 283 285 283 282 282 283 283 282 282 281 280 278 278 277 275 274 273 272 270 270 270 270 270 269 269 268 268 269 269 270 270 269 269 269
287 286 285 284 283 284 285 286 285 284 283 284 282 282 283 283 283 283 283 282 279 278 277 277 276 275 274 273 273 272 271 271 271 271 271 270 270 270 270 271 271 271 270 270
290 289 287 285 287 288 287 287 287 288 287 285 282 282 283 283 283 283 282 281 280 279 278 277 277 276 274 274 274 274 273 272 272 272 271 271 270 271 271 272 272 272 271 271
292 291 288 292 291 289 288 287 288 289 288 287 284 283 284 284 284 283 282 281 281 280 279 278 278 278 277 275 275 275 275 274 274 273 272 272 272 273 273 273 273 273 272 272
291 291 291 293 293 292 290 288 290 291 290 288 286 285 284 285 285 284 283 282 282 280 279 278 278 277 277 276 276 276 276 276 275 274 274 273 274 274 274 275 275 275 274 273
291 292 292 295 294 293 291 290 291 291 291 289 288 287 286 286 286 285 284 283 283 282 281 279 278 277 277 277 277 277 277 277 276 276 275 275 275 275 276 276 276 276 275 275
290 291 291 293 294 295 293 293 293 292 291 290 289 289 287 286 286 285 284 284 284 284 282 281 280 279 278 278 278 278 278 278 278 278 277 276 276 276 276 276 276 276 276 276
291 291 293 294 293 293 293 292 293 292 292 292 291 290 288 288 287 287 286 285 285 284 283 282 281 280 279 279 279 279 279 279 279 279 279 278 277 277 277 277 277 277 276 276
290 291 293 292 292 292 291 291 291 292 292 291 291 291 290 290 289 288 287 286 285 285 284 283 282 282 281 281 280 280 280 280 280 280 279 279 278 278 278 278 278 278 277 276
291 291 292 291 291 290 290 291 292 291 291 291 291 291 291 290 290 288 288 287 286 285 285 284 283 283 283 282 282 281 280 280 280 280 280 280 279 279 279 279 279 279 278 277
289 290 290 289 290 290 291 291 292 292 292 291 291 291 292 292 291 290 289 289 288 287 286 286 285 285 284 283 283 282 281 281 280 280 280 280 279 279 279 280 280 279 278 277
288 289 289 289 290 291 291 291 291 291 291 291 291 291 292 292 292 291 291 291 290 289 288 287 286 286 285 284 284 283 283 282 281 281 281 280 280 280 280 280 280 280 279 278
289 289 289 290 290 291 292 292 291 291 290 290 291 292 293 293 292 292 292 292 291 290 289 288 288 287 286 286 285 284 284 283 283 282 282 282 281 281 280 280 280 280 279 279
292 291 291 291 292 292 292 292 292 292 291 292 292 293 293 293 293 293 293 292 292 292 291 290 289 289 288 287 286 285 285 285 285 285 283 283 282 282 281 281 281 280 279 278
293 293 293 293 293 294 294 294 293 293 293 293 294 294 294 294 294 294 294 293 293 293 292 292 291 290 289 289 288 288 287 287 287 286 285 284 284 283 283 282 282 281 279 278
294 293 293 293 294 294 294 294 293 293 294 294 294 294 294 294 294 294 294 294 294 293 293 293 292 291 291 290 290 290 289 289 288 287 287 286 285 284 283 282 282 281 280 278
295 294 294 295 295 296 296 296 295 295 295 295 295 295 295 295 295 295 295 295 295 294 294 294 293 293 293 292 292 292 291 291 289 289 288 287 286 285 284 283 282 281 279 278
296 297 297 297 297 297 297 298 298 298 297 296 296 296 297 297 297 297 296 296 296 296 295 295 294 294 294 293 293 293 293 293 292 291 290 289 288 286 285 284 282 281 279 278
298 298 298 298 299 299 298 299 299 299 299 298 298 298 298 298 297 297 297 297 297 296 296 295 295 295 295 295 294 294 294 293 293 293 292 290 289 288 286 284 283 282 280 278
299 299 300 300 300 301 300 300 299 299 299 299 300 299 298 298 298 298 298 297 297 297 297 297 297 297 297 296 296 295 294 294 293 293 292 292 290 289 287 285 283 282 281 279
300 300 301 301 301 301 301 301 301 300 300 300 300 300 300 299 299 299 298 298 298 298 298 297 298 298 298 297 297 296 295 294 294 293 293 292 291 289 287 286 284 282 281 280
300 300 300 300 301 302 303 303 302 302 301 301 301 301 301 301 300 300 299 299 298 298 298 299 299 299 299 298 297 296 296 295 294 294 293 292 291 290 288 286 284 282 281 280
300 300 300 301 302 303 303 303 303 303 302 302 303 303 302 302 302 301 300 300 300 299 300 300 300 300 300 299 299 298 297 296 295 294 293 293 292 290 288 286 284 283 281 280
300 301 301 302 302 302 303 303 304 304 304 304 304 304 303 303 302 302 301 301 300 300 300 301 300 300 300 300 300 299 299 297 296 295 294 294 293 291 288 287 285 282 280 279
301 301 302 302 302 302 302 303 304 305 305 305 305 305 304 304 303 302 302 301 300 301 301 301 301 301 301 300 300 300 300 299 297 296 295 295 294 292 289 288 286 283 281 279
301 302 302 303 303 303 303 304 304 305 305 306 306 306 305 305 305 304 303 303 302 302 302 302 302 302 301 301 301 301 301 300 299 297 296 296 294 292 290 289 286 284 282 280
301 302 303 304 303 303 304 305 305 305 306 306 307 307 307 307 306 306 306 305 305 304 304 304 304 303 303 302 302 302 302 301 300 299 298 297 296 294 292 290 288 286 283 281
Height
5592 5591 5588 5587 5586 5584 5581 5579 5577 5577 5576 5576 5574 5571 5569 5567 5565 5563 5562 5560 5559 5558 5557 5556 5555 5554 5553 5553 5552 5552 5552 5551 5551 5551 5550 5551 5551 5551 5550 5550 5550 5549 5549 5549
5584 5582 5579 5577 5577 5574 5572 5570 5568 5566 5566 5566 5563 5560 5558 5556 5555 5553 5552 5550 5548 5546 5545 5544 5543 5542 5541 5540 5540 5539 5538 5538 5538 5537 5537 5537 5537 5536 5536 5536 5535 5534 5534 5534
5574 5573 5569 5568 5569 5566 5564 5561 5559 5556 5557 5555 5553 5550 5548 5546 5544 5542 5540 5539 5537 5535 5534 5533 5531 5530 5529 5528 5527 5526 5526 5525 5524 5524 5523 5523 5522 5522 5522 5521 5520 5519 5519 5518
5564 5563 5558 5563 5560 5557 5554 5552 5549 5547 5545 5544 5542 5539 5537 5535 5533 5531 5529 5528 5526 5524 5522 5521 5520 5519 5517 5516 5515 5514 5513 5512 5511 5510 5509 5508 5508 5507 5507 5506 5505 5504 5503 5502
5554 5551 5549 5553 5551 5547 5543 5542 5541 5537 5535 5533 5531 5528 5527 5525 5522 5520 5518 5516 5514 5512 5511 5509 5508 5506 5505 5504 5502 5501 5500 5499 5497 5496 5495 5494 5493 5492 5491 5490 5489 5488 5487 5486
5546 5541 5539 5544 5541 5536 5534 5532 5532 5527 5525 5522 5519 5517 5518 5514 5511 5508 5506 5505 5503 5501 5499 5497 5495 5494 5492 5491 5489 5488 5486 5485 5483 5482 5480 5479 5478 5477 5475 5474 5473 5472 5471 5469
5537 5532 5531 5534 5530 5527 5524 5524 5521 5517 5514 5512 5509 5507 5505 5502 5500 5497 5494 5492 5490 5488 5486 5484 5483 5481 5479 5478 5476 5474 5472 5470 5469 5467 5465 5464 5462 5461 5459 5458 5457 5456 5455 5453
5528 5524 5525 5523 5519 5517 5514 5512 5509 5506 5503 5501 5498 5495 5493 5490 5488 5485 5483 5480 5478 5476 5474 5471 5469 5468 5466 5464 5462 5460 5458 5456 5454 5452 5450 5448 5447 5445 5443 5442 5440 5439 5437 5436
5519 5518 5515 5512 5509 5506 5504 5501 5498 5496 5493 5490 5487 5484 5481 5479 5476 5473 5470 5467 5465 5462 5460 5458 5456 5454 5452 5450 5448 5445 5443 5441 5439 5437 5434 5432 5430 5429 5427 5425 5423 5422 5420 5419
5509 5507 5505 5502 5498 5496 5493 5490 5488 5485 5482 5479 5476 5473 5470 5467 5463 5460 5457 5454 5452 5449 5447 5444 5442 5439 5437 5435 5432 5430 5428 5426 5424 5422 5419 5417 5414 5413 5411 5409 5407 5405 5403 5402
5498 5497 5494 5492 5488 5485 5482 5479 5476 5474 5470 5467 5464 5461 5458 5454 5451 5448 5444 5441 5438 5435 5433 5430 5428 5425 5422 5420 5417 5415 5413 5410 5408 5406 5404 5401 5399 5396 5394 5392 5389 5388 5386 5384
5488 5486 5483 5481 5477 5474 5471 5468 5465 5462 5459 5455 5452 5449 5445 5442 5438 5435 5431 5428 5425 5422 5419 5416 5413 5410 5407 5404 5402 5399 5397 5395 5392 5390 5387 5385 5383 5380 5377 5375 5372 5369 5367 5366
5477 5474 5471 5469 5466 5463 5459 5456 5453 5449 5446 5443 5440 5436 5432 5429 5425 5422 5418 5415 5412 5408 5405 5402 5399 5396 5393 5390 5387 5384 5381 5378 5376 5373 5371 5368 5366 5363 5361 5359 5355 5352 5350 5348
5466 5463 5460 5458 5454 5451 5447 5444 5441 5437 5434 5430 5427 5423 5420 5416 5412 5409 5405 5402 5398 5395 5391 5388 5385 5381 5378 5375 5371 5368 5365 5362 5359 5356 5354 5351 5349 5346 5344 5341 5339 5336 5334 5331
5456 5452 5449 5446 5443 5439 5436 5432 5429 5425 5422 5418 5414 5411 5407 5404 5400 5396 5392 5388 5385 5381 5378 5374 5370 5367 5363 5360 5356 5353 5350 5346 5343 5340 5337 5334 5332 5329 5326 5324 5321 5319 5317 5314
5445 5442 5438 5435 5432 5428 5424 5420 5416 5413 5409 5406 5402 5398 5395 5391 5387 5383 5379 5375 5371 5368 5364 5360 5356 5352 5349 5345 5341 5338 5334 5330 5327 5324 5320 5318 5315 5312 5309 5306 5304 5301 5299 5297
5434 5431 5427 5424 5420 5416 5412 5408 5404 5401 5397 5393 5390 5386 5382 5378 5374 5370 5366 5362 5358 5354 5350 5346 5342 5338 5334 5330 5326 5323 5319 5315 5311 5307 5304 5301 5298 5295 5292 5289 5287 5284 5282 5280
5423 5420 5416 5412 5408 5405 5401 5396 5392 5389 5385 5381 5377 5373 5369 5365 5361 5357 5353 5349 5344 5340 5336 5331 5328 5324 5319 5315 5311 5308 5304 5300 5296 5292 5289 5285 5282 5279 5276 5273 5271 5268 5266 5264
5412 5409 5405 5401 5397 5393 5389 5385 5381 5377 5373 5369 5365 5361 5357 5352 5348 5344 5339 5335 5331 5327 5322 5317 5313 5309 5305 5300 5297 5293 5289 5285 5281 5277 5273 5270 5267 5263 5260 5258 5255 5253 5251 5249
5401 5398 5394 5390 5386 5382 5378 5374 5370 5365 5361 5357 5353 5348 5344 5339 5335 5330 5326 5321 5317 5312 5308 5304 5300 5295 5290 5286 5282 5278 5274 5270 5266 5263 5259 5255 5252 5249 5246 5243 5241 5239 5237 5235
5390 5387 5383 5379 5375 5371 5367 5362 5358 5354 5349 5345 5341 5336 5331 5326 5322 5317 5313 5308 5303 5299 5295 5290 5286 5281 5277 5272 5268 5264 5260 5256 5252 5249 5245 5242 5238 5235 5232 5230 5228 5226 5224 5222
5380 5376 5372 5368 5364 5360 5356 5351 5347 5342 5338 5333 5328 5324 5319 5314 5309 5304 5299 5295 5290 5286 5281 5277 5272 5267 5263 5259 5255 5251 5247 5243 5239 5235 5232 5228 5225 5222 5219 5217 5215 5213 5212 5210
5369 5365 5361 5357 5353 5349 5345 5340 5335 5331 5326 5321 5316 5311 5306 5301 5296 5292 5287 5282 5277 5273 5268 5263 5259 5254 5249 5245 5242 5238 5234 5230 5226 5222 5219 5216 5212 5210 5207 5205 5203 5201 5199 5198
5358 5354 5350 5346 5342 5338 5333 5329 5324 5319 5314 5309 5304 5299 5294 5289 5284 5279 5274 5269 5264 5260 5255 5250 5246 5241 5237 5233 5229 5225 5221 5217 5213 5210 5207 5204 5200 5198 5195 5193 5191 5189 5187 5186
5348 5344 5339 5335 5331 5327 5322 5317 5313 5308 5303 5297 5292 5287 5281 5276 5272 5266 5261 5256 5252 5247 5242 5238 5233 5228 5224 5220 5216 5213 5209 5205 5202 5198 5195 5192 5189 5186 5184 5181 5179 5177 5176 5174
5337 5333 5328 5324 5320 5315 5310 5306 5301 5296 5291 5286 5280 5275 5269 5264 5259 5254 5249 5244 5239 5235 5230 5225 5221 5217 5212 5209 5205 5201 5197 5194 5190 5187 5184 5181 5178 5175 5172 5170 5168 5166 5164 5163
5325 5321 5317 5313 5308 5303 5298 5294 5289 5284 5279 5274 5269 5263 5258 5252 5247 5242 5237 5232 5228 5223 5218 5214 5209 5205 5201 5197 5193 5190 5186 5182 5179 5176 5172 5169 5166 5163 5161 5159 5156 5154 5153 5152